Location: *
(38.3914°N, 75.0697°W)
Time: 08:42:35
(UTC+00:00)

STARLINK-1042 - Pass Details

Date: 17 February 2020
Orbit: 548 x 551 km, 53.0° (Epoch: 01 April)

Event Time Altitude Azimuth Distance (km) Brightness Sun altitude
Exits shadow 10:40:41 24° 276° (W) 1,173 4.7 -14.0°
Maximum altitude 10:42:29 35° 229° (SW) 897 4.3 -13.7°
Drops below altitude 10° 10:46:16 10° 163° (SSE) 1,817 6.6 -12.9°
Sets 10:48:37 0° 154° (SSE) 2,706 7.6 -12.5°
